{"data":{"norad_id":54383,"epoch":"2026-05-25T04:31:00.498144Z","epoch_age_seconds":59086,"freshness":"FRESH","line1":"1 54383U 22163C   26145.18820021  .00000003  00000+0  55594-4 0  9991","line2":"2 54383  67.1406 158.1077 0001933 122.3766 237.7506 13.97707833177352","mean_motion":13.97707833,"eccentricity":0.0001933,"inclination_deg":67.1406,"raan_deg":158.1077,"arg_perigee_deg":122.3766,"mean_anomaly_deg":237.7506,"bstar":5.5594e-5,"rev_number":17735,"period_min":103.0258231371,"perigee_km":900.3361580296,"apogee_km":903.15055977635,"semimajor_km":7279.880358903,"source":"CELESTRAK","updated_at":"2026-05-25T13:37:58.668580Z"}}